sat.trackr.live / text

‹ back to catalog

STARLINK-30127

NORAD 56699 · 2023-067M

PAYLOAD ACTIVE UNKNOWN

§ Identity

Operator
Country
US
Launch date
2023-05-19
Launch site
AFETR
Launch vehicle
Mass (kg)
RCS (m²)

Purposes: comms

External: N2YO · Heavens-Above · Gunter

§ Orbital elements

Epoch: 2026-05-25T05:29:05.672832Z

Period
94.32 min
Inclination
43.0043°
Eccentricity
0.0002062
Mean motion
15.26734901 rev/d
Perigee alt
484.2 km
Apogee alt
487.0 km
Semi-major
6,863.7 km
B*
2.5868e-5
RAAN
209.2049°
Arg perigee
266.4265°
Mean anomaly
93.6350°
Rev number
16,728

§ Raw data

STARLINK-301271 56699U 23067M   26145.22853788  .00000434  00000+0  25868-4 0  99972 56699  43.0043 209.2049 0002062 266.4265  93.6350 15.26734901167286

JSON: /api/v1/satellites/56699 · /tle

For live sub-satellite position, see the globe view (requires WebGL).

§ Visibility from observer

Set your observer location to see the next 7 days of passes ≥ 10°. The values pass through the URL so the page stays shareable.

No JS? Fill the form by hand. The geolocation button needs JavaScript.